Theta_e
301 302 301 301 301 301 302 302 302 302 302 302 301 301 305 308 310 312 311 310 302 304 305 310 311 312 312 310 314 312 315 318 318 314 315 317 316 315 317 317 324 321 323 323 320 324 327 321 323 323 319 320 320 321
300 300 301 301 302 301 300 302 302 302 302 302 301 300 303 304 308 311 310 308 304 302 301 306 306 306 309 312 309 309 318 317 319 315 313 313 314 312 312 315 316 321 321 323 322 321 317 317 319 319 318 319 319 319
298 299 299 300 301 301 302 301 301 302 302 302 301 300 303 306 308 310 310 304 303 304 305 307 307 309 309 311 312 310 307 314 315 312 312 315 318 312 316 315 316 315 315 317 318 318 320 318 315 316 315 316 315 316
299 298 298 299 300 300 301 302 301 301 302 302 301 300 301 307 309 309 310 307 302 306 311 310 311 312 312 311 310 311 310 312 310 307 310 312 314 308 312 312 312 313 314 315 316 317 317 315 314 314 314 314 313 313
298 298 298 298 298 299 300 301 302 301 302 302 301 300 299 306 310 309 310 309 304 307 311 311 310 312 312 312 312 313 313 307 306 305 310 312 309 309 307 308 310 310 313 314 314 313 315 314 313 312 312 312 312 313
297 297 298 297 298 299 300 301 302 301 301 303 301 300 299 305 308 309 307 310 310 305 307 312 308 309 311 311 312 311 310 307 306 307 307 307 307 310 311 311 309 308 309 310 311 310 312 312 312 312 311 310 310 309
297 297 297 297 298 298 299 300 302 302 301 303 301 300 299 305 308 306 305 304 308 309 306 311 308 306 310 309 308 307 308 308 307 307 309 308 308 307 306 309 309 310 311 311 310 310 313 312 312 307 308 309 309 309
297 298 298 297 297 298 298 299 301 302 301 302 301 300 301 304 308 307 306 305 305 303 306 309 307 308 308 309 310 305 308 305 306 308 306 310 307 306 309 308 309 310 311 312 310 309 308 306 304 304 305 304 305 304
300 299 299 298 298 298 298 299 302 301 302 301 300 301 304 305 304 306 307 307 303 307 306 307 306 311 305 306 306 307 305 311 304 310 308 308 308 311 311 310 311 311 311 311 311 309 304 304 303 304 304 304 304 303
301 300 300 300 299 298 298 299 302 302 302 300 302 303 301 304 305 307 308 307 309 308 306 305 300 305 305 305 307 309 305 308 310 308 306 309 309 308 308 307 308 309 310 306 305 305 304 304 303 304 304 304 303 305
303 302 302 302 301 300 299 301 302 302 300 302 303 303 302 306 306 305 307 306 309 310 308 306 303 304 302 308 308 308 309 307 311 309 310 308 309 309 303 304 304 306 309 305 303 302 302 303 303 305 306 307 307 308
303 302 302 303 303 301 299 302 302 300 302 303 303 305 305 304 305 307 307 308 308 308 305 304 304 302 304 306 310 309 312 309 313 307 311 312 308 304 307 307 305 304 305 305 306 306 306 306 307 306 306 306 306 307
302 302 303 303 303 300 301 302 300 300 303 305 304 305 303 303 305 307 310 309 310 305 302 302 304 304 303 305 307 309 313 312 307 308 309 307 304 309 308 307 306 306 306 306 306 306 306 306 307 307 306 306 306 305
298 302 301 300 300 302 302 300 300 303 303 303 304 305 304 303 305 304 305 306 304 302 302 303 303 301 303 308 307 313 309 307 309 310 309 305 307 308 307 306 306 305 305 304 305 305 305 305 305 305 305 305 304 304
297 298 301 302 301 301 300 299 302 303 303 304 303 303 303 301 300 300 301 301 302 300 303 304 304 304 307 310 309 309 311 311 309 308 305 305 306 306 304 305 304 304 304 303 304 303 303 304 303 303 304 305 304 305
300 299 301 300 301 300 300 302 303 303 303 305 305 306 301 301 301 301 300 301 300 301 303 304 308 309 311 311 313 313 311 312 307 307 305 304 304 303 303 303 303 304 303 302 302 303 303 304 304 304 305 305 305 305
298 300 299 299 299 299 300 300 301 302 304 305 303 301 301 301 302 301 300 300 301 305 306 306 310 309 308 312 312 307 308 306 306 305 303 303 303 302 301 302 302 302 302 302 303 303 304 305 305 305 305 305 305 305
299 298 298 298 299 300 300 301 301 302 303 304 305 302 301 302 303 302 301 301 303 305 306 308 306 308 308 309 306 306 304 302 303 303 302 301 301 301 302 301 302 303 304 304 304 304 304 305 305 305 305 304 303 304
299 301 300 300 300 300 301 301 301 304 304 305 305 302 304 304 302 302 302 304 305 307 308 307 308 303 305 304 304 304 303 303 303 301 300 301 301 301 302 303 303 304 304 304 304 304 305 305 305 304 303 304 303 304
300 301 301 300 300 300 303 302 302 303 304 306 308 305 308 305 306 306 308 308 308 309 310 310 309 306 304 303 302 302 302 300 300 301 300 299 302 302 303 303 303 304 304 305 305 305 305 305 304 303 303 304 304 305
300 300 300 300 300 299 300 302 303 303 304 308 307 308 308 309 309 309 308 307 307 307 308 306 304 303 302 302 303 303 301 300 299 300 301 301 303 302 302 303 304 305 305 305 306 306 305 304 302 303 305 306 306 306
300 301 300 299 299 300 300 303 303 304 305 304 305 306 307 308 308 307 305 306 306 304 304 304 302 302 302 302 303 303 303 302 302 301 302 302 303 303 302 302 304 305 305 306 306 306 305 303 303 305 306 307 307 306
301 301 301 299 302 302 302 301 303 303 305 306 306 307 306 305 304 302 304 303 303 302 303 303 303 303 302 303 303 303 304 304 302 302 303 303 304 304 305 303 305 306 306 307 306 305 304 302 304 306 306 306 305 304
301 301 300 300 299 300 301 303 302 303 305 305 305 307 305 304 302 304 305 303 303 302 301 301 301 300 299 300 299 303 305 305 305 305 305 305 305 305 305 305 306 308 308 306 302 302 302 302 305 306 304 303 303 303
297 298 297 294 298 299 302 302 302 301 305 305 305 305 305 303 304 303 303 302 302 302 302 301 300 299 299 299 301 305 305 306 305 305 306 306 305 305 306 307 308 307 305 303 301 301 303 305 305 303 303 302 302 302
297 301 301 302 300 301 301 302 303 304 304 306 306 304 302 304 305 302 297 300 302 305 304 303 303 303 301 303 304 304 305 305 305 306 307 307 306 306 307 308 308 307 305 303 302 304 305 305 303 302 302 303 302 300
303 304 301 299 300 301 302 301 301 303 306 307 304 304 305 308 306 300 300 299 300 303 304 304 305 303 304 304 305 306 306 306 306 306 308 308 307 307 308 309 308 308 307 303 304 305 305 304 302 302 303 303 300 299
303 302 304 302 302 301 303 303 304 305 305 302 303 307 307 303 299 299 298 304 304 305 305 305 305 305 305 305 306 306 306 307 308 309 308 305 305 306 308 308 307 307 304 302 304 306 305 304 303 303 303 303 300 298
303 302 303 305 305 305 305 306 306 304 302 302 303 304 304 301 301 301 304 305 305 305 305 305 305 306 305 306 306 306 306 307 307 308 307 305 304 304 304 304 303 302 303 304 305 305 306 304 303 303 304 303 302 298
305 302 302 303 305 305 303 301 302 301 299 300 300 300 300 300 303 304 306 306 305 305 304 305 305 306 305 304 305 306 307 307 308 307 306 305 305 304 304 303 303 303 303 304 305 304 305 305 304 304 304 303 301 299
303 301 303 303 305 304 303 301 301 300 300 300 299 301 301 301 303 304 304 304 305 306 305 306 305 305 304 304 305 306 306 308 308 308 307 307 307 306 304 304 303 303 304 304 305 305 305 305 305 305 304 302 300 299
304 305 305 306 305 304 303 303 302 302 301 301 301 300 300 301 301 300 305 305 306 305 306 305 304 304 305 305 306 306 307 308 308 309 309 309 308 307 305 304 303 304 304 304 305 304 305 304 303 303 302 301 300 299
305 306 305 306 305 305 305 305 305 305 304 303 303 304 304 302 303 300 305 305 305 306 306 305 305 304 306 307 307 308 308 308 308 309 309 309 308 308 307 305 304 304 304 304 305 304 304 304 303 302 302 302 300 298
Wind_Speed
9 10 11 11 14 18 16 17 16 16 14 13 11 11 19 18 13 13 3 8 3 1 5 3 3 1 4 2 2 5 3 3 4 4 3 2 2 0 3 2 0 3 5 3 3 2 6 3 3 5 5 3 3 4
8 9 10 11 12 13 17 17 17 16 15 15 13 10 14 15 17 15 4 5 11 2 5 6 17 22 15 15 2 3 2 2 2 3 1 2 2 2 3 2 2 1 5 3 5 4 3 4 3 4 3 3 2 2
8 9 12 13 12 12 14 15 19 16 16 16 13 12 15 16 18 18 6 8 4 1 4 2 7 8 11 21 19 2 2 2 0 2 3 1 2 3 3 4 2 2 3 3 3 3 2 3 2 1 1 3 2 2
10 10 10 11 14 13 12 14 16 19 17 16 14 13 13 17 16 16 12 7 4 1 2 5 3 9 7 9 14 21 2 3 4 2 2 2 1 2 3 2 3 4 4 4 2 4 3 5 4 2 2 3 3 2
13 12 12 12 12 14 14 13 15 17 17 16 15 12 10 17 13 15 17 10 6 1 2 4 16 5 7 11 16 15 7 3 2 2 2 2 2 3 1 2 2 4 6 4 6 8 5 5 6 6 7 6 7 4
17 17 16 14 14 15 16 15 15 16 19 17 16 13 10 18 12 11 1 12 15 7 1 3 4 5 6 6 12 8 5 3 3 3 2 2 3 2 3 4 6 5 5 7 5 6 7 4 6 4 5 5 3 5
23 23 22 20 18 17 18 17 15 17 20 17 16 14 12 22 17 4 3 0 13 15 1 3 5 4 4 3 3 3 4 2 2 1 0 1 2 3 2 3 7 8 7 6 4 6 1 4 5 7 6 5 5 4
26 25 24 23 21 20 20 20 17 19 20 17 16 11 13 20 17 4 2 2 12 4 2 1 4 4 5 1 1 2 2 2 3 2 1 2 2 2 2 9 7 7 6 4 7 6 3 2 6 6 7 6 4 2
29 29 27 26 25 24 22 25 21 22 23 20 16 15 14 4 3 5 5 3 11 2 2 1 2 3 4 2 1 2 2 1 1 1 2 3 1 4 7 5 6 7 5 6 5 5 5 7 8 6 4 3 3 3
26 27 28 28 27 27 26 27 27 28 27 23 23 5 2 7 11 12 3 2 2 1 1 2 1 3 2 2 2 2 2 1 1 4 2 2 4 6 5 7 8 8 6 6 5 4 4 4 5 4 3 2 2 2
15 20 24 27 31 31 34 31 35 34 31 14 5 2 8 19 4 3 2 3 2 2 2 3 5 2 1 2 2 0 2 0 0 4 3 1 3 3 9 9 7 6 5 3 4 6 6 4 4 4 3 2 1 3
5 13 18 28 37 37 37 41 44 30 19 13 14 12 7 3 2 4 4 3 4 5 3 4 5 5 1 2 2 1 2 1 5 0 1 2 3 4 6 7 9 7 10 11 14 10 12 12 8 4 1 4 6 9
5 11 17 32 45 45 45 48 39 30 23 21 5 2 3 2 3 7 8 4 4 3 3 2 2 4 1 1 2 2 3 4 1 0 3 4 2 3 5 5 8 12 14 13 12 12 11 9 7 6 8 10 12 14
9 23 29 39 43 48 51 44 39 31 9 3 4 6 6 5 6 4 6 5 4 4 5 4 2 3 1 3 2 3 3 2 2 2 4 2 2 2 4 4 5 6 6 7 7 7 6 6 8 11 12 14 13 15
20 24 32 40 47 49 48 44 35 12 3 3 4 5 7 3 2 3 3 2 2 4 4 4 3 3 2 3 0 2 1 4 3 4 2 3 4 2 3 4 5 5 5 5 7 7 8 9 10 13 15 16 16 16
31 28 28 34 38 44 37 30 7 4 2 1 2 2 2 2 3 3 3 3 3 4 2 3 4 3 2 3 3 5 2 5 4 3 3 4 2 1 2 3 4 5 6 7 8 8 11 12 12 14 15 14 15 15
17 9 25 29 29 25 16 5 5 2 1 1 2 1 2 2 4 3 4 5 6 6 4 3 4 5 3 3 3 4 5 3 3 2 2 4 3 0 2 4 5 6 7 9 12 11 12 12 12 11 9 13 15 16
24 18 19 19 25 11 4 3 3 3 3 2 2 3 3 3 2 2 3 3 4 4 4 3 4 3 5 5 3 3 1 0 2 2 2 1 2 3 2 3 7 9 12 13 12 12 13 12 10 8 9 11 13 12
20 22 20 22 14 4 2 2 1 0 2 2 2 3 3 3 2 2 4 5 6 5 3 2 2 3 3 3 3 2 2 2 2 1 2 4 5 5 6 8 9 9 11 11 11 10 11 10 7 7 8 8 8 8
17 13 13 12 5 3 1 1 0 1 2 2 2 2 2 1 2 4 6 5 3 3 2 1 2 2 3 2 2 2 2 2 2 1 3 3 5 6 8 8 9 11 12 12 9 6 4 3 5 7 6 6 4 6
10 6 4 5 2 2 1 3 2 3 2 1 2 3 2 2 4 4 3 2 3 2 3 2 2 2 3 4 4 3 2 5 3 3 3 3 9 8 11 11 11 12 9 7 4 0 1 4 6 6 4 4 5 6
4 12 5 4 1 4 3 4 2 2 2 1 1 0 2 3 2 2 3 2 1 2 2 3 3 2 2 1 2 2 4 6 8 10 10 9 4 4 5 9 10 7 6 6 4 3 1 3 6 5 6 7 9 8
7 9 4 6 3 2 3 4 3 3 2 2 0 2 2 2 3 2 2 1 1 1 2 3 4 4 2 1 3 5 4 6 7 10 12 12 13 13 11 11 11 7 5 4 3 2 2 2 3 7 11 13 13 13
1 2 1 0 1 2 0 3 2 3 3 2 3 3 2 2 1 3 2 0 1 1 1 3 4 2 2 2 2 4 5 5 9 11 13 10 6 7 8 9 7 5 6 5 2 3 4 4 6 11 12 15 14 14
3 3 3 3 1 3 2 2 2 3 2 2 3 1 1 1 2 2 2 2 2 2 2 5 4 3 3 2 4 5 5 5 7 5 12 8 7 6 6 4 5 5 8 6 8 8 7 11 12 13 14 15 15 15
3 1 2 2 0 2 1 2 1 2 2 2 2 1 1 2 2 1 2 3 3 3 3 3 3 2 2 3 3 5 8 11 11 6 9 4 6 6 3 3 3 5 7 5 13 12 14 13 15 20 19 18 17 17
3 2 1 1 2 2 2 1 1 2 2 2 2 2 2 2 1 2 1 1 2 4 5 5 4 1 4 10 10 8 12 12 9 10 11 3 5 7 4 3 5 5 11 12 15 17 18 17 20 23 21 18 18 21
2 1 1 1 1 1 3 2 2 1 1 1 2 2 2 4 4 2 3 3 6 7 6 5 3 7 11 10 9 11 10 10 7 4 11 11 9 4 3 4 5 11 14 15 18 17 17 20 25 23 22 19 18 19
1 2 1 3 3 4 3 2 1 0 2 2 3 2 2 2 1 1 3 6 7 5 4 1 4 10 12 8 4 5 6 5 1 4 5 3 4 9 9 13 15 15 17 18 16 15 18 20 25 23 19 16 16 17
2 1 3 4 4 4 2 1 2 1 2 2 3 2 2 3 3 3 4 5 3 2 2 1 6 8 9 7 6 5 4 4 8 4 3 3 3 7 9 12 14 15 17 20 20 17 17 19 19 18 15 14 13 15
0 2 3 3 3 3 2 2 5 4 3 4 4 4 2 1 4 5 3 2 1 5 4 4 8 9 7 5 2 1 4 9 11 13 14 12 9 8 8 10 12 14 15 18 19 18 20 18 18 19 17 13 10 14
3 3 3 3 1 3 2 3 3 3 4 4 4 3 3 4 3 4 3 3 1 3 2 4 9 11 10 5 2 6 10 15 11 10 11 13 11 6 9 8 11 14 16 15 17 18 18 18 18 21 18 11 8 15
2 3 3 2 2 2 2 3 2 2 2 1 2 2 1 3 1 2 2 4 4 2 4 2 8 11 9 3 4 11 17 14 8 6 8 13 11 1 12 12 12 15 16 16 17 16 16 16 20 18 14 9 10 16
Wind_Direction
229 229 227 230 235 228 224 224 225 225 222 221 229 222 215 212 215 214 233 228 203 207 282 284 332 11 351 38 31 296 16 347 18 61 113 197 100 201 62 20 103 166 140 176 110 119 268 26 297 182 224 343 117 127
243 241 240 235 235 229 228 225 222 223 221 219 230 227 205 204 206 215 218 218 215 209 253 285 280 276 251 246 182 317 198 245 208 73 71 128 128 85 144 205 336 162 170 185 165 219 263 279 270 317 200 121 117 131
237 237 243 242 239 236 225 224 224 221 217 220 222 214 199 200 202 208 185 172 171 235 288 314 254 282 254 239 237 160 284 224 199 164 150 138 92 120 143 243 120 352 127 116 82 256 280 331 320 296 82 119 140 176
256 254 246 239 239 235 232 220 220 221 214 217 215 210 201 195 196 205 206 206 217 258 256 279 307 282 285 244 231 215 219 85 88 74 101 116 128 165 206 192 161 198 135 150 264 279 318 274 245 200 99 101 103 108
254 254 251 243 234 234 230 225 216 213 208 208 208 204 203 192 198 208 220 223 215 212 262 283 308 298 298 238 205 191 167 106 83 43 76 224 163 127 9 74 270 187 177 158 221 216 171 226 198 185 179 204 207 184
258 257 253 245 241 227 225 222 214 208 208 201 202 200 196 184 186 178 272 239 228 224 4 321 296 313 2 136 148 120 113 100 98 131 221 265 257 124 159 200 257 236 226 190 213 191 193 201 199 206 210 228 192 198
263 258 251 245 238 225 219 217 213 199 203 194 193 192 188 183 194 173 191 269 202 196 174 310 316 310 340 87 52 59 48 71 103 109 319 267 319 78 113 194 256 248 249 242 225 124 219 197 218 181 161 158 176 217
257 253 247 240 229 221 211 210 207 192 193 181 180 181 175 187 193 221 63 209 174 194 173 218 274 344 13 34 85 14 83 32 15 160 26 205 349 73 256 242 257 266 303 256 217 229 189 141 135 159 154 149 126 89
255 249 240 233 225 217 206 203 192 182 176 166 158 148 140 198 121 177 140 114 165 218 179 119 202 239 354 16 75 42 57 83 324 190 242 114 314 227 229 241 259 257 215 252 242 196 161 178 175 171 143 138 151 220
249 239 234 226 217 206 194 192 180 172 162 152 145 144 151 179 151 129 106 55 6 292 71 199 126 266 80 14 26 69 22 149 187 246 101 143 252 267 275 263 264 274 278 158 112 128 166 190 177 165 171 169 196 192
234 223 215 206 202 194 182 184 169 160 153 157 144 122 128 136 91 35 189 169 181 227 192 227 184 214 310 104 177 225 157 158 28 266 148 251 279 278 336 321 305 250 210 190 76 84 69 103 133 114 103 92 27 320
233 208 204 200 187 177 179 168 162 150 163 165 125 117 120 98 114 155 187 177 192 216 193 178 219 193 247 119 95 206 163 65 247 116 123 247 259 321 345 4 25 41 76 74 73 75 69 68 66 68 11 328 318 309
44 176 165 176 169 165 167 162 154 150 146 131 99 104 134 138 155 189 182 183 179 196 199 159 161 146 65 72 72 111 175 231 17 162 225 225 298 9 23 24 40 43 57 61 55 54 49 35 17 359 327 313 302 298
83 147 143 153 157 159 157 152 155 157 145 94 136 147 193 183 208 190 189 155 213 145 152 135 109 121 101 70 137 164 231 78 270 236 236 203 169 55 43 34 42 20 31 40 38 26 16 351 324 312 300 300 296 290
100 98 127 144 148 152 152 156 160 142 106 121 142 190 199 200 215 224 182 137 193 139 149 103 67 91 76 106 100 89 245 247 223 231 223 183 167 106 48 29 30 19 5 357 343 328 311 307 302 305 316 314 307 301
96 105 118 136 143 150 155 153 127 77 76 159 194 186 146 123 251 201 183 203 164 131 89 67 124 113 179 149 164 203 209 222 242 205 177 145 126 53 40 6 353 349 334 319 319 318 320 323 314 309 311 314 316 310
84 90 116 136 143 145 150 59 50 339 25 190 235 318 176 248 232 191 156 186 167 153 161 133 122 187 131 175 203 195 211 228 179 154 140 151 151 250 318 332 336 325 317 318 324 327 320 313 316 318 309 311 315 320
101 128 140 127 155 154 79 60 167 183 226 243 262 262 206 224 194 203 201 149 127 164 140 174 128 151 175 181 222 223 190 49 70 130 156 219 208 257 290 312 320 318 320 318 316 318 321 316 302 295 306 328 334 340
117 118 129 139 128 107 155 182 152 91 231 275 243 241 235 255 232 148 135 126 110 113 88 42 116 175 211 215 204 189 130 144 169 211 262 277 269 283 306 322 319 314 313 311 306 298 297 301 308 335 341 349 339 356
127 110 114 155 168 45 74 54 156 215 268 270 225 248 113 118 109 85 94 79 70 59 67 156 207 215 186 206 171 130 150 138 112 355 285 292 322 321 305 314 303 302 299 297 296 301 321 354 359 358 354 355 14 12
130 149 115 113 84 83 228 213 197 219 239 304 342 37 36 57 86 63 60 37 69 140 173 189 164 142 107 107 107 115 146 173 205 203 231 277 299 310 296 302 297 281 269 272 277 289 351 1 349 357 19 62 64 59
164 178 178 186 189 195 243 233 240 172 134 134 70 150 63 79 104 133 153 125 131 171 166 145 145 127 123 171 211 246 278 268 257 259 262 264 273 278 272 272 272 261 267 263 239 175 133 356 3 51 113 111 115 100
181 187 201 168 199 229 246 178 188 181 108 112 136 69 76 137 150 147 82 56 122 62 109 107 128 139 164 248 283 294 269 248 257 262 263 252 248 253 252 264 270 256 248 226 229 151 158 46 59 104 117 120 116 108
144 151 136 211 170 206 189 351 14 55 53 46 68 119 195 207 2 60 94 289 174 125 89 117 123 75 18 323 268 268 284 282 274 275 274 253 246 237 254 268 276 246 218 191 154 148 150 128 123 141 130 123 116 110
80 327 96 326 348 56 59 22 45 67 99 137 121 122 175 82 77 74 160 221 164 183 182 153 155 188 206 253 281 299 301 309 301 288 297 274 244 267 283 259 176 178 166 143 123 124 124 124 129 132 128 119 111 105
82 258 109 180 251 111 204 91 104 136 137 96 77 107 69 84 81 206 240 193 194 184 182 190 193 201 270 239 294 307 307 321 321 291 312 298 215 205 217 148 162 181 189 161 144 132 125 129 127 128 119 108 105 108
51 359 268 221 135 122 77 45 98 90 82 114 153 94 85 81 125 264 301 265 176 186 181 169 159 198 290 305 315 316 330 331 316 297 308 192 170 183 188 173 189 178 176 163 157 146 137 135 134 132 120 110 112 126
246 215 70 274 168 183 127 99 69 60 113 148 92 60 109 160 207 226 204 189 157 138 130 131 36 359 338 321 308 311 324 332 342 115 111 74 72 90 181 188 162 152 155 156 153 148 143 140 146 140 131 114 112 128
303 285 131 40 50 48 45 43 8 267 156 106 113 134 152 222 219 168 152 158 152 133 122 61 357 352 354 351 341 328 318 332 352 115 93 74 47 57 98 121 132 137 142 143 142 140 141 143 152 149 138 118 115 123
7 14 76 40 45 14 317 283 308 344 56 98 115 86 46 24 57 91 133 154 171 199 197 54 345 339 338 334 334 5 51 82 113 108 110 98 89 108 130 134 135 139 146 146 140 132 137 144 147 144 140 130 128 133
19 74 71 56 63 343 313 323 49 53 50 49 42 80 82 339 48 42 59 30 68 131 132 352 346 341 328 325 291 105 98 112 98 95 89 91 102 110 120 147 145 147 152 158 155 148 148 151 156 157 151 147 149 156
29 83 102 76 94 309 27 54 54 62 28 41 15 38 26 43 23 325 41 17 97 193 150 10 354 345 346 333 203 182 154 134 116 105 68 47 44 90 140 127 155 160 160 160 161 158 158 160 163 162 159 157 161 170
55 55 88 103 28 39 348 93 76 79 79 148 245 216 156 151 171 261 35 20 7 318 199 20 9 6 10 91 127 143 152 155 137 83 37 20 3 136 171 161 149 154 155 163 166 166 165 164 163 165 175 188 178 178